Location: Chervonnoye
(48.6000°N, 34.4000°E)
Time: 17:37:43
(UTC+00:00)

Okean-O - Pass Details

Date: 23 April 2021
Orbit: 639 x 640 km, 98.2° (Epoch: 16 May)

Event Time Altitude Azimuth Distance (km) Brightness Sun altitude
Rises 17:16:12 0° 192° (SSW) 2,933 5.9 -5.5°
Reaches altitude 10° 17:18:37 10° 203° (SSW) 2,029 5.2 -5.8°
Maximum altitude 17:22:30 30° 264° (W) 1,164 4.7 -6.4°
Drops below altitude 10° 17:26:24 10° 326° (NW) 2,043 6.4 -7.0°
Sets 17:28:52 0° 337° (NNW) 2,957 7.0 -7.3°
